Location: Bouchavesnes-Bergen
(49.9859°N, 2.9203°E)
Time: 00:42:11
(UTC+00:00)

IDEFIX/ARIANE 42P - Pass Details

Date: 22 June 2021
Orbit: 784 x 803 km, 98.4° (Epoch: 30 July)

Event Time Altitude Azimuth Distance (km) Brightness Sun altitude
Rises 02:21:38 0° 16° (NNE) 3,318 7.4 -9.3°
Reaches altitude 10° 02:24:01 10° 20° (NNE) 2,380 6.5 -9.1°
Maximum altitude 02:29:14 62° 101° (ESE) 893 3.0 -8.6°
Drops below altitude 10° 02:34:23 10° 183° (S) 2,350 4.5 -8.1°
Enters shadow 02:35:35 - 185° (S) 2,824 4.9 -8.0°
